Terminal Aerodrome Forecast
Issued by NWS

Home | Current Version | Previous Version | Text Only | Print | Product List | Glossary On
Versions: 1 2 3 4 5 6 7 8 9 10 11 12 13 14 15 16 17 18 19 20 21
000
FTUS43 KFGF 260700 AAA
TAFTVF
TAF AMD
KTVF 260720Z 2607/2706 01013KT P6SM OVC035
      TEMPO 2607/2610 4SM -SN BR BKN025
     FM261100 35012KT P6SM SCT025
      AMD LTD TO CLD VIS AND WIND=

USA.gov is the U.S. government's official web portal to all federal, state and local government web resources and services.